120  
AXUS43 KGID 230502  
MISGRI  
 
GID CWA HOURLY WEATHER ROUNDUP  
NATIONAL WEATHER SERVICE HASTINGS NE  
1200 AM CDT SAT JUN 23 2018  
 
NOTE: "FAIR" INDICATES FEW OR NO CLOUDS BELOW 12,000 FEET WITH NO  
SIGNIFICANT WEATHER AND/OR OBSTRUCTIONS TO VISIBILITY.  
   
..SOUTH CENTRAL NEBRASKA
 
 
 
CITY SKY/WX TMP DP RH WIND PRES REMARKS  
GRAND ISLAND CLOUDY 64 60 87 S3 29.85R  
KEARNEY CLOUDY 64 60 87 CALM 29.87R  
HASTINGS CLOUDY 64 60 87 S9 29.84F  
ORD CLOUDY 64 61 90 SE6 29.83R  
YORK MOCLDY 61 59 94 CALM 29.84R  
AURORA CLOUDY 61 60 99 CALM 29.85R  
LEXINGTON MOCLDY 65 62 89 W8 29.92R  
HOLDREGE CLOUDY 63 62 97 SE7G23 29.84R  
HEBRON CLOUDY 64 60 86 CALM 29.82R  
   
..NEBRASKA PANHANDLE
 
 
 
CITY SKY/WX TMP DP RH WIND PRES REMARKS  
CHADRON MOCLDY 62 54 74 W7 29.87S  
ALLIANCE CLOUDY 54 54 100 MISG 29.92R  
SCOTTSBLUFF MOCLDY 63 62 97 CALM 29.94R  
SIDNEY CLOUDY 59 54 83 CALM 29.97R  
   
..WESTERN AND NORTH CENTRAL NEBRASKA
 
 
 
CITY SKY/WX TMP DP RH WIND PRES REMARKS  
VALENTINE CLOUDY 68 60 75 S9 29.81F  
AINSWORTH CLOUDY 62 56 82 S8 29.84F  
ONEILL CLOUDY 66 61 84 SE6 29.84R  
BROKEN BOW CLOUDY 65 61 87 S7 29.86S  
IMPERIAL LGT RAIN 63 57 81 NE14 29.91F  
NORTH PLATTE CLOUDY 65 58 78 W10 29.90F  
MCCOOK PTCLDY 61 58 90 NW16G23 29.95R  
   
..EASTERN NEBRASKA
 
 
 
CITY SKY/WX TMP DP RH WIND PRES REMARKS  
NORFOLK PTCLDY 60 59 96 SW3 29.84R  
SO SIOUX CITY CLOUDY 63 60 90 CALM 29.83R  
TEKAMAH PTCLDY 63 62 97 CALM 29.82F  
COLUMBUS MOCLDY 61 59 93 CALM 29.84S  
ALBION MOCLDY 63 61 92 CALM 29.84F  
OMAHA EPPLEY CLOUDY 65 60 84 CALM 29.83S  
OFFUTT AFB CLOUDY 61 61 98 CALM 29.82S  
MILLARD PTCLDY 65 64 94 CALM 29.82F  
LINCOLN CLOUDY 62 60 93 CALM 29.83F  
NEBRASKA CITY MOCLDY 63 63 100 SW5 29.84S  
BEATRICE MOCLDY 64 63 96 E5 29.82F FOG  
FALLS CITY CLOUDY 64 62 93 SW3 29.84F  
   
..NORTHERN KANSAS
 
 
 
CITY SKY/WX TMP DP RH WIND PRES REMARKS  
GOODLAND CLEAR 58 56 93 SW7 29.90R  
HILL CITY CLOUDY 60 59 96 N7 29.86R  
NORTON CLEAR 61 55 82 S5 29.85R  
PHILLIPSBURG CLEAR 63 63 100 N7 29.85R  
SMITH CENTER PTCLDY 64 61 88 NE6 29.84R  
HAYS CLOUDY 63 60 90 NW5 29.85R  
RUSSELL CLOUDY 64 63 96 NW7 29.81R  
CONCORDIA CLOUDY 64 60 87 CALM 29.81R  
SALINA CLOUDY 67 63 87 NW16G30 29.72F  
TOPEKA CLOUDY 67 65 93 NE3 29.84F  
 
CLICK HERE TO GO TO PREVIOUS BULLETINS.

The Nexlab NE Page
The Nexlab KS Page Main Text Page